Time,TemperatureF,DewpointF,PressureIn,WindDirection,WindDirectionDegrees,WindSpeedMPH,WindSpeedGustMPH,Humidity,HourlyPrecipIn,Conditions,Clouds,dailyrainin,SoftwareType,DateUTC
2013-06-12 00:05:00,78.4,65.7,29.62,East,96,1.0,8.0,65,0.00,,---,0.00,VWS V14.01,2013-06-12 05:05:00,
2013-06-12 00:11:00,78.3,66.0,29.62,ESE,114,3.0,8.0,66,0.00,,---,0.00,VWS V14.01,2013-06-12 05:11:00,
2013-06-12 00:17:00,78.2,65.9,29.62,ESE,111,4.0,8.0,66,0.00,,---,0.00,VWS V14.01,2013-06-12 05:17:00,
2013-06-12 00:23:00,78.0,65.7,29.62,ESE,111,1.0,8.0,66,0.00,,---,0.00,VWS V14.01,2013-06-12 05:23:00,
2013-06-12 00:29:00,77.9,66.1,29.61,ESE,114,5.0,8.0,67,0.00,,---,0.00,VWS V14.01,2013-06-12 05:29:00,
2013-06-12 00:35:00,77.8,66.0,29.61,ESE,105,4.0,8.0,67,0.00,,---,0.00,VWS V14.01,2013-06-12 05:35:00,
2013-06-12 00:41:00,77.8,66.0,29.61,ESE,115,2.0,10.0,67,0.00,,---,0.00,VWS V14.01,2013-06-12 05:41:00,
2013-06-12 00:47:00,77.7,66.3,29.61,ESE,121,2.0,10.0,68,0.00,,---,0.00,VWS V14.01,2013-06-12 05:47:00,
2013-06-12 00:54:00,77.4,66.0,29.61,SSE,150,0.0,10.0,68,0.00,,---,0.00,VWS V14.01,2013-06-12 05:54:00,
2013-06-12 01:00:00,77.1,66.2,29.61,ESE,122,4.0,10.0,69,0.00,,---,0.00,VWS V14.01,2013-06-12 06:00:00,
2013-06-12 01:06:00,76.9,66.0,29.60,SE,125,2.0,4.0,69,0.00,,---,0.00,VWS V14.01,2013-06-12 06:06:00,
2013-06-12 01:12:00,76.9,66.0,29.59,ESE,108,2.0,6.0,69,0.00,,---,0.00,VWS V14.01,2013-06-12 06:12:00,
2013-06-12 01:18:00,76.9,66.4,29.59,ESE,113,1.0,6.0,70,0.00,,---,0.00,VWS V14.01,2013-06-12 06:18:00,
2013-06-12 01:24:00,76.9,66.4,29.59,ESE,112,3.0,7.0,70,0.00,,---,0.00,VWS V14.01,2013-06-12 06:24:00,
2013-06-12 01:30:00,76.8,66.3,29.59,ESE,111,0.0,7.0,70,0.00,,---,0.00,VWS V14.01,2013-06-12 06:30:00,
2013-06-12 01:36:00,76.8,66.3,29.59,NE,43,2.0,5.0,70,0.00,,---,0.00,VWS V14.01,2013-06-12 06:36:00,
2013-06-12 01:42:00,76.7,66.2,29.59,ESE,113,0.0,5.0,70,0.00,,---,0.00,VWS V14.01,2013-06-12 06:42:00,
2013-06-12 01:48:00,76.5,66.4,29.58,ESE,111,0.0,5.0,71,0.00,,---,0.00,VWS V14.01,2013-06-12 06:48:00,
2013-06-12 01:54:00,76.3,66.2,29.58,SE,124,0.0,5.0,71,0.00,,---,0.00,VWS V14.01,2013-06-12 06:54:00,
2013-06-12 02:00:00,76.2,66.5,29.59,East,80,0.0,5.0,72,0.00,,---,0.00,VWS V14.01,2013-06-12 07:00:00,
2013-06-12 02:06:00,76.0,66.3,29.62,NNW,342,0.0,0.0,72,0.00,,---,0.00,VWS V14.01,2013-06-12 07:06:00,
2013-06-12 02:12:00,75.7,66.4,29.65,WNW,288,1.0,9.0,73,0.00,,---,0.00,VWS V14.01,2013-06-12 07:12:00,
2013-06-12 02:18:00,75.5,66.6,29.65,WNW,287,0.0,9.0,74,0.00,,---,0.00,VWS V14.01,2013-06-12 07:18:00,
2013-06-12 02:24:00,75.2,66.3,29.64,WNW,293,0.0,9.0,74,0.00,,---,0.00,VWS V14.01,2013-06-12 07:24:00,
2013-06-12 02:31:00,74.9,66.4,29.66,WNW,300,0.0,9.0,75,0.00,,---,0.00,VWS V14.01,2013-06-12 07:31:00,
2013-06-12 02:37:00,74.5,66.4,29.63,WNW,300,4.0,4.0,76,0.00,,---,0.00,VWS V14.01,2013-06-12 07:37:00,
2013-06-12 02:43:00,74.2,66.5,29.62,SSE,163,4.0,6.0,77,0.00,,---,0.00,VWS V14.01,2013-06-12 07:43:00,
2013-06-12 02:49:00,74.1,66.4,29.65,NNW,346,6.0,7.0,77,0.00,,---,0.00,VWS V14.01,2013-06-12 07:49:00,
2013-06-12 02:55:00,74.4,66.3,29.64,NNW,346,0.0,8.0,76,0.00,,---,0.00,VWS V14.01,2013-06-12 07:55:00,
2013-06-12 03:00:00,74.5,66.4,29.63,NNW,346,0.0,8.0,76,0.00,,---,0.00,VWS V14.01,2013-06-12 08:00:00,
2013-06-12 03:07:00,74.4,66.3,29.64,NNW,346,0.0,0.0,76,0.00,,---,0.00,VWS V14.01,2013-06-12 08:07:00,
2013-06-12 03:13:00,74.3,66.2,29.64,NNW,346,0.0,0.0,76,0.00,,---,0.00,VWS V14.01,2013-06-12 08:13:00,
2013-06-12 03:19:00,74.2,66.2,29.65,NNW,346,0.0,0.0,76,0.00,,---,0.00,VWS V14.01,2013-06-12 08:19:00,
2013-06-12 03:25:00,74.1,66.4,29.64,NNW,346,0.0,0.0,77,0.00,,---,0.00,VWS V14.01,2013-06-12 08:25:00,
2013-06-12 03:31:00,74.0,66.3,29.64,NNW,346,0.0,0.0,77,0.00,,---,0.00,VWS V14.01,2013-06-12 08:31:00,
2013-06-12 03:37:00,73.9,66.6,29.64,NNW,346,0.0,0.0,78,0.00,,---,0.00,VWS V14.01,2013-06-12 08:37:00,
2013-06-12 03:43:00,73.6,66.3,29.64,NNW,346,0.0,1.0,78,0.00,,---,0.00,VWS V14.01,2013-06-12 08:43:00,
2013-06-12 03:49:00,73.5,66.2,29.65,SW,232,0.0,2.0,78,0.00,,---,0.00,VWS V14.01,2013-06-12 08:49:00,
2013-06-12 03:55:00,73.6,66.7,29.65,SW,233,0.0,2.0,79,0.00,,---,0.00,VWS V14.01,2013-06-12 08:55:00,
2013-06-12 04:00:00,73.5,66.2,29.64,SW,234,0.0,3.0,78,0.00,,---,0.00,VWS V14.01,2013-06-12 09:00:00,
2013-06-12 04:07:00,73.7,66.4,29.63,SW,234,1.0,1.0,78,0.00,,---,0.00,VWS V14.01,2013-06-12 09:07:00,
2013-06-12 04:13:00,74.4,66.3,29.62,ESE,120,4.0,5.0,76,0.00,,---,0.00,VWS V14.01,2013-06-12 09:13:00,
2013-06-12 04:19:00,74.8,66.3,29.62,ESE,109,1.0,8.0,75,0.00,,---,0.00,VWS V14.01,2013-06-12 09:19:00,
2013-06-12 04:25:00,74.9,66.8,29.63,ESE,109,0.0,8.0,76,0.00,,---,0.00,VWS V14.01,2013-06-12 09:25:00,
2013-06-12 04:30:00,74.8,66.3,29.63,ESE,109,0.0,8.0,75,0.00,,---,0.00,VWS V14.01,2013-06-12 09:30:00,
2013-06-12 04:37:00,74.5,66.8,29.62,ESE,109,0.0,2.0,77,0.00,,---,0.00,VWS V14.01,2013-06-12 09:37:00,
2013-06-12 04:43:00,74.1,66.4,29.62,ESE,109,0.0,2.0,77,0.00,,---,0.00,VWS V14.01,2013-06-12 09:43:00,
2013-06-12 04:49:00,73.9,66.6,29.63,ESE,109,1.0,4.0,78,0.00,,---,0.00,VWS V14.01,2013-06-12 09:49:00,
2013-06-12 04:56:00,73.8,66.5,29.62,ESE,110,0.0,4.0,78,0.00,,---,0.00,VWS V14.01,2013-06-12 09:56:00,
2013-06-12 05:02:00,73.7,66.4,29.61,ESE,113,5.0,5.0,78,0.00,,---,0.00,VWS V14.01,2013-06-12 10:02:00,
2013-06-12 05:08:00,73.8,66.5,29.60,ESE,113,0.0,5.0,78,0.00,,---,0.00,VWS V14.01,2013-06-12 10:08:00,
2013-06-12 05:14:00,73.9,66.6,29.60,ESE,113,0.0,5.0,78,0.00,,---,0.00,VWS V14.01,2013-06-12 10:14:00,
2013-06-12 05:20:00,73.6,66.7,29.60,ESE,115,0.0,5.0,79,0.00,,---,0.00,VWS V14.01,2013-06-12 10:20:00,
2013-06-12 05:26:00,73.4,66.5,29.61,SE,132,0.0,5.0,79,0.00,,---,0.00,VWS V14.01,2013-06-12 10:26:00,
2013-06-12 05:32:00,73.2,66.7,29.60,SE,132,0.0,0.0,80,0.00,,---,0.00,VWS V14.01,2013-06-12 10:32:00,
2013-06-12 05:38:00,73.1,66.6,29.60,ESE,121,0.0,0.0,80,0.00,,---,0.00,VWS V14.01,2013-06-12 10:38:00,
2013-06-12 05:44:00,73.0,66.5,29.61,ESE,119,0.0,0.0,80,0.00,,---,0.00,VWS V14.01,2013-06-12 10:44:00,
2013-06-12 05:50:00,72.8,66.6,29.61,ESE,120,0.0,0.0,81,0.00,,---,0.00,VWS V14.01,2013-06-12 10:50:00,
2013-06-12 05:56:00,72.6,66.4,29.60,ESE,111,0.0,0.0,81,0.00,,---,0.00,VWS V14.01,2013-06-12 10:56:00,
2013-06-12 06:02:00,72.4,66.6,29.61,ESE,107,0.0,0.0,82,0.00,,---,0.00,VWS V14.01,2013-06-12 11:02:00,
2013-06-12 06:08:00,72.2,66.4,29.61,ESE,122,2.0,5.0,82,0.00,,---,0.00,VWS V14.01,2013-06-12 11:08:00,
2013-06-12 06:14:00,72.1,66.3,29.61,ESE,114,0.0,7.0,82,0.00,,---,0.00,VWS V14.01,2013-06-12 11:14:00,
2013-06-12 06:20:00,71.8,66.4,29.60,ESE,121,2.0,7.0,83,0.00,,---,0.00,VWS V14.01,2013-06-12 11:20:00,
2013-06-12 06:26:00,71.6,66.2,29.61,ESE,121,2.0,7.0,83,0.00,,---,0.00,VWS V14.01,2013-06-12 11:26:00,
2013-06-12 06:32:00,71.5,66.4,29.61,ESE,111,3.0,4.0,84,0.00,,---,0.00,VWS V14.01,2013-06-12 11:32:00,
2013-06-12 06:38:00,71.4,66.3,29.61,ESE,115,0.0,5.0,84,0.00,,---,0.00,VWS V14.01,2013-06-12 11:38:00,
2013-06-12 06:44:00,71.5,66.4,29.61,ESE,115,1.0,5.0,84,0.00,,---,0.00,VWS V14.01,2013-06-12 11:44:00,
2013-06-12 06:50:00,71.6,66.5,29.62,ESE,109,1.0,5.0,84,0.00,,---,0.00,VWS V14.01,2013-06-12 11:50:00,
2013-06-12 06:56:00,71.8,66.7,29.62,ESE,109,0.0,5.0,84,0.00,,---,0.00,VWS V14.01,2013-06-12 11:56:00,
2013-06-12 07:02:00,72.0,66.9,29.62,ESE,113,0.0,0.0,84,0.00,,---,0.00,VWS V14.01,2013-06-12 12:02:00,
2013-06-12 07:08:00,72.1,67.0,29.63,ESE,114,0.0,0.0,84,0.00,,---,0.00,VWS V14.01,2013-06-12 12:08:00,
2013-06-12 07:15:00,72.2,67.1,29.62,ESE,114,0.0,0.0,84,0.00,,---,0.00,VWS V14.01,2013-06-12 12:15:00,
2013-06-12 07:21:00,72.3,67.2,29.63,ESE,113,0.0,0.0,84,0.00,,---,0.00,VWS V14.01,2013-06-12 12:21:00,
2013-06-12 07:27:00,72.4,67.3,29.63,ESE,114,0.0,0.0,84,0.00,,---,0.00,VWS V14.01,2013-06-12 12:27:00,
2013-06-12 07:33:00,72.6,67.5,29.64,ESE,113,0.0,0.0,84,0.00,,---,0.00,VWS V14.01,2013-06-12 12:33:00,
2013-06-12 07:39:00,72.9,68.1,29.64,ESE,114,0.0,0.0,85,0.00,,---,0.00,VWS V14.01,2013-06-12 12:39:00,
2013-06-12 07:45:00,73.2,68.1,29.64,ESE,118,0.0,0.0,84,0.00,,---,0.00,VWS V14.01,2013-06-12 12:45:00,
2013-06-12 07:51:00,73.5,68.0,29.63,ESE,117,4.0,4.0,83,0.00,,---,0.00,VWS V14.01,2013-06-12 12:51:00,
2013-06-12 07:57:00,73.8,68.3,29.63,ESE,115,3.0,4.0,83,0.00,,---,0.00,VWS V14.01,2013-06-12 12:57:00,
2013-06-12 08:03:00,74.0,68.5,29.63,ESE,121,2.0,3.0,83,0.00,,---,0.00,VWS V14.01,2013-06-12 13:03:00,
2013-06-12 08:09:00,74.3,68.8,29.63,ESE,121,2.0,3.0,83,0.00,,---,0.00,VWS V14.01,2013-06-12 13:09:00,
2013-06-12 08:15:00,74.7,69.2,29.63,ESE,121,0.0,3.0,83,0.00,,---,0.00,VWS V14.01,2013-06-12 13:15:00,
2013-06-12 08:21:00,75.0,69.1,29.63,SSE,163,0.0,3.0,82,0.00,,---,0.00,VWS V14.01,2013-06-12 13:21:00,
2013-06-12 08:27:00,75.4,69.5,29.63,SSE,151,2.0,3.0,82,0.00,,---,0.00,VWS V14.01,2013-06-12 13:27:00,
2013-06-12 08:33:00,75.7,69.8,29.63,ESE,123,0.0,3.0,82,0.00,,---,0.00,VWS V14.01,2013-06-12 13:33:00,
2013-06-12 08:39:00,76.1,70.2,29.63,ESE,123,0.0,3.0,82,0.00,,---,0.00,VWS V14.01,2013-06-12 13:39:00,
2013-06-12 08:45:00,76.5,70.6,29.64,ESE,123,0.0,3.0,82,0.00,,---,0.00,VWS V14.01,2013-06-12 13:45:00,
2013-06-12 08:51:00,76.9,71.0,29.64,ESE,123,0.0,3.0,82,0.00,,---,0.00,VWS V14.01,2013-06-12 13:51:00,
2013-06-12 08:57:00,77.1,70.8,29.65,ESE,123,0.0,3.0,81,0.00,,---,0.00,VWS V14.01,2013-06-12 13:57:00,
2013-06-12 09:03:00,77.6,71.3,29.65,ESE,123,0.0,0.0,81,0.00,,---,0.00,VWS V14.01,2013-06-12 14:03:00,
2013-06-12 09:09:00,78.2,71.5,29.65,NW,314,2.0,4.0,80,0.00,,---,0.00,VWS V14.01,2013-06-12 14:09:00,
2013-06-12 09:15:00,78.5,71.4,29.65,WNW,297,4.0,4.0,79,0.00,,---,0.00,VWS V14.01,2013-06-12 14:15:00,
2013-06-12 09:21:00,78.7,71.3,29.65,West,277,3.0,9.0,78,0.00,,---,0.00,VWS V14.01,2013-06-12 14:21:00,
2013-06-12 09:27:00,78.5,71.1,29.65,NW,314,4.0,9.0,78,0.00,,---,0.00,VWS V14.01,2013-06-12 14:27:00,
2013-06-12 09:33:00,78.7,71.6,29.65,West,267,5.0,5.0,79,0.00,,---,0.00,VWS V14.01,2013-06-12 14:33:00,
2013-06-12 09:40:00,79.2,71.4,29.65,NW,306,2.0,6.0,77,0.00,,---,0.00,VWS V14.01,2013-06-12 14:40:00,
2013-06-12 09:46:00,79.6,71.8,29.65,NW,306,0.0,6.0,77,0.00,,---,0.00,VWS V14.01,2013-06-12 14:46:00,
2013-06-12 09:52:00,80.5,72.2,29.65,NW,306,0.0,6.0,76,0.00,,---,0.00,VWS V14.01,2013-06-12 14:52:00,
2013-06-12 09:58:00,81.2,72.5,29.65,WNW,300,0.0,6.0,75,0.00,,---,0.00,VWS V14.01,2013-06-12 14:58:00,
2013-06-12 10:04:00,81.9,72.8,29.64,WNW,290,5.0,9.0,74,0.00,,---,0.00,VWS V14.01,2013-06-12 15:04:00,
2013-06-12 10:10:00,82.5,72.2,29.64,NW,304,3.0,9.0,71,0.00,,---,0.00,VWS V14.01,2013-06-12 15:10:00,
2013-06-12 10:16:00,82.7,72.3,29.64,NW,324,1.0,9.0,71,0.00,,---,0.00,VWS V14.01,2013-06-12 15:16:00,
2013-06-12 10:22:00,82.9,72.1,29.64,NW,310,3.0,9.0,70,0.00,,---,0.00,VWS V14.01,2013-06-12 15:22:00,
2013-06-12 10:28:00,83.0,72.2,29.64,WNW,294,7.0,9.0,70,0.00,,---,0.00,VWS V14.01,2013-06-12 15:28:00,
2013-06-12 10:37:00,83.1,72.7,29.64,NNW,340,4.0,6.0,71,0.00,,---,0.00,VWS V14.01,2013-06-12 15:37:00,
2013-06-12 10:43:00,83.3,72.9,29.65,West,276,4.0,9.0,71,0.00,,---,0.00,VWS V14.01,2013-06-12 15:43:00,
2013-06-12 10:49:00,83.5,73.1,29.65,WNW,297,7.0,9.0,71,0.00,,---,0.00,VWS V14.01,2013-06-12 15:49:00,
2013-06-12 10:55:00,83.6,72.4,29.65,NW,324,10.0,11.0,69,0.00,,---,0.00,VWS V14.01,2013-06-12 15:55:00,
2013-06-12 11:00:00,83.8,73.0,29.65,NW,313,7.0,11.0,70,0.00,,---,0.00,VWS V14.01,2013-06-12 16:00:00,
2013-06-12 11:07:00,83.6,73.2,29.65,NNW,340,3.0,10.0,71,0.00,,---,0.00,VWS V14.01,2013-06-12 16:07:00,
2013-06-12 11:13:00,83.8,73.4,29.65,WNW,292,4.0,10.0,71,0.00,,---,0.00,VWS V14.01,2013-06-12 16:13:00,
2013-06-12 11:19:00,84.3,73.9,29.66,NW,316,8.0,11.0,71,0.00,,---,0.00,VWS V14.01,2013-06-12 16:19:00,
2013-06-12 11:25:00,85.0,75.0,29.66,NW,318,10.0,11.0,72,0.00,,---,0.00,VWS V14.01,2013-06-12 16:25:00,
2013-06-12 11:30:00,85.0,73.7,29.66,West,281,6.0,11.0,69,0.00,,---,0.00,VWS V14.01,2013-06-12 16:30:00,
2013-06-12 11:37:00,85.4,74.5,29.67,NW,311,6.0,10.0,70,0.00,,---,0.00,VWS V14.01,2013-06-12 16:37:00,
2013-06-12 11:43:00,85.2,73.4,29.67,West,273,5.0,15.0,68,0.00,,---,0.00,VWS V14.01,2013-06-12 16:43:00,
2013-06-12 11:49:00,85.4,73.2,29.67,NW,321,13.0,15.0,67,0.00,,---,0.00,VWS V14.01,2013-06-12 16:49:00,
2013-06-12 11:55:00,85.6,73.8,29.67,NW,307,8.0,19.0,68,0.00,,---,0.00,VWS V14.01,2013-06-12 16:55:00,
2013-06-12 12:01:00,85.6,73.4,29.67,NW,321,13.0,19.0,67,0.00,,---,0.00,VWS V14.01,2013-06-12 17:01:00,
2013-06-12 12:07:00,86.0,73.8,29.68,WNW,300,9.0,16.0,67,0.00,,---,0.00,VWS V14.01,2013-06-12 17:07:00,
2013-06-12 12:13:00,86.5,73.8,29.67,WSW,256,3.0,16.0,66,0.00,,---,0.00,VWS V14.01,2013-06-12 17:13:00,
2013-06-12 12:19:00,86.8,75.4,29.68,WNW,290,8.0,16.0,69,0.00,,---,0.00,VWS V14.01,2013-06-12 17:19:00,
2013-06-12 12:25:00,87.0,74.3,29.68,WNW,292,4.0,16.0,66,0.00,,---,0.00,VWS V14.01,2013-06-12 17:25:00,
2013-06-12 12:30:00,87.2,74.5,29.68,West,281,8.0,16.0,66,0.00,,---,0.00,VWS V14.01,2013-06-12 17:30:00,
2013-06-12 12:35:00,87.5,74.3,29.68,West,269,8.0,17.0,65,0.00,,---,0.00,VWS V14.01,2013-06-12 17:35:00,
2013-06-12 12:42:00,87.5,74.8,29.68,WNW,294,5.0,18.0,66,0.00,,---,0.00,VWS V14.01,2013-06-12 17:42:00,
2013-06-12 12:48:00,87.7,74.9,29.68,WNW,302,10.0,18.0,66,0.00,,---,0.00,VWS V14.01,2013-06-12 17:48:00,
2013-06-12 12:54:00,87.6,73.9,29.69,WNW,294,4.0,18.0,64,0.00,,---,0.00,VWS V14.01,2013-06-12 17:54:00,
2013-06-12 13:00:00,87.5,74.8,29.69,WNW,297,5.0,18.0,66,0.00,,---,0.00,VWS V14.01,2013-06-12 18:00:00,
2013-06-12 13:06:00,87.4,74.7,29.69,WNW,287,11.0,16.0,66,0.00,,---,0.00,VWS V14.01,2013-06-12 18:06:00,
2013-06-12 13:12:00,87.2,73.6,29.70,NW,311,6.0,18.0,64,0.00,,---,0.00,VWS V14.01,2013-06-12 18:12:00,
2013-06-12 13:18:00,87.1,73.4,29.70,West,272,7.0,18.0,64,0.00,,---,0.00,VWS V14.01,2013-06-12 18:18:00,
2013-06-12 13:24:00,87.0,73.8,29.70,NW,314,14.0,19.0,65,0.00,,---,0.00,VWS V14.01,2013-06-12 18:24:00,
2013-06-12 13:30:00,86.5,72.4,29.71,NW,325,20.0,23.0,63,0.00,,---,0.00,VWS V14.01,2013-06-12 18:30:00,
2013-06-12 13:36:00,85.7,72.6,29.71,NW,319,9.0,21.0,65,0.00,,---,0.00,VWS V14.01,2013-06-12 18:36:00,
2013-06-12 13:42:00,85.7,73.0,29.72,NW,317,12.0,23.0,66,0.00,,---,0.00,VWS V14.01,2013-06-12 18:42:00,
2013-06-12 13:48:00,85.4,72.3,29.72,WNW,288,10.0,23.0,65,0.00,,---,0.00,VWS V14.01,2013-06-12 18:48:00,
2013-06-12 13:54:00,85.3,71.8,29.72,NW,306,11.0,23.0,64,0.00,,---,0.00,VWS V14.01,2013-06-12 18:54:00,
2013-06-12 14:00:00,85.2,72.6,29.72,WNW,292,10.0,23.0,66,0.00,,---,0.00,VWS V14.01,2013-06-12 19:00:00,
2013-06-12 14:06:00,85.4,72.8,29.72,West,275,15.0,16.0,66,0.00,,---,0.00,VWS V14.01,2013-06-12 19:06:00,
2013-06-12 14:12:00,85.6,72.5,29.73,NW,304,15.0,26.0,65,0.00,,---,0.00,VWS V14.01,2013-06-12 19:12:00,
2013-06-12 14:18:00,85.4,72.3,29.73,NW,315,17.0,26.0,65,0.00,,---,0.00,VWS V14.01,2013-06-12 19:18:00,
2013-06-12 14:24:00,85.3,71.8,29.73,NNW,333,13.0,26.0,64,0.00,,---,0.00,VWS V14.01,2013-06-12 19:24:00,
2013-06-12 14:30:00,85.0,71.5,29.73,NW,317,13.0,26.0,64,0.00,,---,0.00,VWS V14.01,2013-06-12 19:30:00,
2013-06-12 14:36:00,85.1,70.6,29.73,NW,305,14.0,24.0,62,0.00,,---,0.00,VWS V14.01,2013-06-12 19:36:00,
2013-06-12 14:42:00,84.9,71.8,29.73,NW,307,10.0,24.0,65,0.00,,---,0.00,VWS V14.01,2013-06-12 19:42:00,
2013-06-12 14:48:00,85.3,70.3,29.74,NW,321,16.0,24.0,61,0.00,,---,0.00,VWS V14.01,2013-06-12 19:48:00,
2013-06-12 14:55:00,84.9,69.5,29.74,NNW,333,10.0,24.0,60,0.00,,---,0.00,VWS V14.01,2013-06-12 19:55:00,
2013-06-12 15:01:00,84.8,69.9,29.74,NW,313,18.0,25.0,61,0.00,,---,0.00,VWS V14.01,2013-06-12 20:01:00,
2013-06-12 15:07:00,84.9,70.0,29.74,West,273,13.0,23.0,61,0.00,,---,0.00,VWS V14.01,2013-06-12 20:07:00,
2013-06-12 15:13:00,85.0,69.6,29.74,NW,317,8.0,23.0,60,0.00,,---,0.00,VWS V14.01,2013-06-12 20:13:00,
2013-06-12 15:19:00,84.8,68.4,29.74,North,355,13.0,24.0,58,0.00,,---,0.00,VWS V14.01,2013-06-12 20:19:00,
2013-06-12 15:25:00,84.3,68.9,29.74,NW,311,5.0,24.0,60,0.00,,---,0.00,VWS V14.01,2013-06-12 20:25:00,
2013-06-12 15:30:00,84.1,68.2,29.74,NW,311,6.0,24.0,59,0.00,,---,0.00,VWS V14.01,2013-06-12 20:30:00,
2013-06-12 15:37:00,84.0,68.1,29.74,NW,315,21.0,21.0,59,0.00,,---,0.00,VWS V14.01,2013-06-12 20:37:00,
2013-06-12 15:43:00,83.8,68.4,29.74,WNW,292,12.0,21.0,60,0.00,,---,0.00,VWS V14.01,2013-06-12 20:43:00,
2013-06-12 15:49:00,83.9,67.6,29.74,NW,311,7.0,25.0,58,0.00,,---,0.00,VWS V14.01,2013-06-12 20:49:00,
2013-06-12 15:55:00,84.1,67.7,29.74,NNW,328,13.0,25.0,58,0.00,,---,0.00,VWS V14.01,2013-06-12 20:55:00,
2013-06-12 16:01:00,84.1,68.7,29.75,NW,321,10.0,25.0,60,0.00,,---,0.00,VWS V14.01,2013-06-12 21:01:00,
2013-06-12 16:07:00,84.5,68.6,29.75,NW,317,19.0,19.0,59,0.00,,---,0.00,VWS V14.01,2013-06-12 21:07:00,
2013-06-12 16:13:00,84.6,67.7,29.75,WSW,253,14.0,22.0,57,0.00,,---,0.00,VWS V14.01,2013-06-12 21:13:00,
2013-06-12 16:19:00,84.3,66.9,29.75,WNW,286,21.0,26.0,56,0.00,,---,0.00,VWS V14.01,2013-06-12 21:19:00,
2013-06-12 16:25:00,84.2,67.3,29.75,WNW,295,12.0,26.0,57,0.00,,---,0.00,VWS V14.01,2013-06-12 21:25:00,
2013-06-12 16:30:00,84.2,67.3,29.75,NW,305,11.0,26.0,57,0.00,,---,0.00,VWS V14.01,2013-06-12 21:30:00,
2013-06-12 16:37:00,83.7,66.9,29.76,WNW,283,5.0,25.0,57,0.00,,---,0.00,VWS V14.01,2013-06-12 21:37:00,
2013-06-12 16:43:00,83.7,66.9,29.76,NW,319,7.0,25.0,57,0.00,,---,0.00,VWS V14.01,2013-06-12 21:43:00,
2013-06-12 16:49:00,83.2,65.9,29.76,NW,304,20.0,26.0,56,0.00,,---,0.00,VWS V14.01,2013-06-12 21:49:00,
2013-06-12 16:55:00,82.8,66.0,29.76,SW,226,5.0,26.0,57,0.00,,---,0.00,VWS V14.01,2013-06-12 21:55:00,
2013-06-12 17:00:00,82.7,65.4,29.77,NW,321,9.0,26.0,56,0.00,,---,0.00,VWS V14.01,2013-06-12 22:00:00,
2013-06-12 17:05:00,82.7,65.4,29.77,WNW,300,4.0,19.0,56,0.00,,---,0.00,VWS V14.01,2013-06-12 22:05:00,
2013-06-12 17:12:00,82.7,64.9,29.77,WNW,283,10.0,19.0,55,0.00,,---,0.00,VWS V14.01,2013-06-12 22:12:00,
2013-06-12 17:18:00,82.4,64.6,29.77,WNW,301,10.0,25.0,55,0.00,,---,0.00,VWS V14.01,2013-06-12 22:18:00,
2013-06-12 17:24:00,82.2,63.9,29.78,West,265,13.0,25.0,54,0.00,,---,0.00,VWS V14.01,2013-06-12 22:24:00,
2013-06-12 17:30:00,82.1,64.3,29.77,NNW,331,13.0,25.0,55,0.00,,---,0.00,VWS V14.01,2013-06-12 22:30:00,
2013-06-12 17:36:00,82.3,64.0,29.78,WNW,291,4.0,16.0,54,0.00,,---,0.00,VWS V14.01,2013-06-12 22:36:00,
2013-06-12 17:42:00,82.3,64.5,29.78,WNW,295,3.0,18.0,55,0.00,,---,0.00,VWS V14.01,2013-06-12 22:42:00,
2013-06-12 17:48:00,82.1,64.3,29.78,NW,307,10.0,18.0,55,0.00,,---,0.00,VWS V14.01,2013-06-12 22:48:00,
2013-06-12 17:54:00,81.9,64.2,29.78,WNW,298,13.0,21.0,55,0.00,,---,0.00,VWS V14.01,2013-06-12 22:54:00,
2013-06-12 18:00:00,81.5,63.8,29.78,WNW,286,13.0,21.0,55,0.00,,---,0.00,VWS V14.01,2013-06-12 23:00:00,
2013-06-12 18:06:00,81.4,63.2,29.78,WNW,294,6.0,23.0,54,0.00,,---,0.00,VWS V14.01,2013-06-12 23:06:00,
2013-06-12 18:12:00,81.1,63.4,29.78,WNW,298,12.0,23.0,55,0.00,,---,0.00,VWS V14.01,2013-06-12 23:12:00,
2013-06-12 18:18:00,80.6,63.5,29.78,WNW,296,15.0,26.0,56,0.00,,---,0.00,VWS V14.01,2013-06-12 23:18:00,
2013-06-12 18:24:00,80.1,63.0,29.78,NW,310,13.0,26.0,56,0.00,,---,0.00,VWS V14.01,2013-06-12 23:24:00,
2013-06-12 18:30:00,79.8,63.2,29.79,NW,321,9.0,26.0,57,0.00,,---,0.00,VWS V14.01,2013-06-12 23:30:00,
2013-06-12 18:36:00,79.7,63.1,29.79,NW,314,16.0,16.0,57,0.00,,---,0.00,VWS V14.01,2013-06-12 23:36:00,
2013-06-12 18:42:00,79.3,62.3,29.80,NW,304,16.0,20.0,56,0.00,,---,0.00,VWS V14.01,2013-06-12 23:42:00,
2013-06-12 18:48:00,78.7,62.2,29.80,NW,317,11.0,29.0,57,0.00,,---,0.00,VWS V14.01,2013-06-12 23:48:00,
2013-06-12 18:54:00,78.2,62.2,29.80,WNW,287,13.0,29.0,58,0.00,,---,0.00,VWS V14.01,2013-06-12 23:54:00,
2013-06-12 19:00:00,77.7,61.8,29.80,WNW,300,11.0,29.0,58,0.00,,---,0.00,VWS V14.01,2013-06-13 00:00:00,
2013-06-12 19:06:00,77.3,60.9,29.81,NW,313,10.0,19.0,57,0.00,,---,0.00,VWS V14.01,2013-06-13 00:06:00,
2013-06-12 19:12:00,76.9,61.0,29.81,WNW,299,16.0,19.0,58,0.00,,---,0.00,VWS V14.01,2013-06-13 00:12:00,
2013-06-12 19:18:00,76.3,60.5,29.82,NNW,327,12.0,24.0,58,0.00,,---,0.00,VWS V14.01,2013-06-13 00:18:00,
2013-06-12 19:24:00,75.2,60.4,29.82,WNW,295,15.0,24.0,60,0.00,,---,0.00,VWS V14.01,2013-06-13 00:24:00,
2013-06-12 19:30:00,74.2,60.4,29.83,NNW,329,12.0,24.0,62,0.00,,---,0.00,VWS V14.01,2013-06-13 00:30:00,
2013-06-12 19:37:00,73.4,59.2,29.84,WNW,290,9.0,29.0,61,0.00,,---,0.00,VWS V14.01,2013-06-13 00:37:00,
2013-06-12 19:43:00,72.9,58.7,29.84,NW,318,15.0,29.0,61,0.00,,---,0.00,VWS V14.01,2013-06-13 00:43:00,
2013-06-12 19:49:00,72.5,58.3,29.84,NW,311,14.0,29.0,61,0.00,,---,0.00,VWS V14.01,2013-06-13 00:49:00,
2013-06-12 19:55:00,72.2,58.0,29.84,WNW,302,11.0,29.0,61,0.00,,---,0.00,VWS V14.01,2013-06-13 00:55:00,
2013-06-12 20:00:00,72.1,57.9,29.85,West,270,9.0,29.0,61,0.00,,---,0.00,VWS V14.01,2013-06-13 01:00:00,
2013-06-12 20:07:00,71.7,58.9,29.85,NW,322,17.0,21.0,64,0.00,,---,0.00,VWS V14.01,2013-06-13 01:07:00,
2013-06-12 20:13:00,71.2,58.4,29.86,NNW,332,9.0,21.0,64,0.00,,---,0.00,VWS V14.01,2013-06-13 01:13:00,
2013-06-12 20:19:00,70.5,57.8,29.87,NNW,329,16.0,29.0,64,0.00,,---,0.00,VWS V14.01,2013-06-13 01:19:00,
2013-06-12 20:25:00,69.8,57.1,29.87,NNW,348,15.0,29.0,64,0.00,,---,0.00,VWS V14.01,2013-06-13 01:25:00,
2013-06-12 20:30:00,69.4,57.1,29.87,NW,321,8.0,29.0,65,0.00,,---,0.00,VWS V14.01,2013-06-13 01:30:00,
2013-06-12 20:37:00,68.9,56.7,29.87,NW,304,14.0,25.0,65,0.00,,---,0.00,VWS V14.01,2013-06-13 01:37:00,
2013-06-12 20:43:00,68.5,56.3,29.87,WNW,283,12.0,25.0,65,0.00,,---,0.00,VWS V14.01,2013-06-13 01:43:00,
2013-06-12 20:49:00,68.1,56.7,29.88,WNW,290,8.0,25.0,67,0.00,,---,0.00,VWS V14.01,2013-06-13 01:49:00,
2013-06-12 20:55:00,67.8,56.5,29.88,WNW,302,5.0,25.0,67,0.00,,---,0.00,VWS V14.01,2013-06-13 01:55:00,
2013-06-12 21:00:00,67.6,56.7,29.89,West,276,11.0,25.0,68,0.00,,---,0.00,VWS V14.01,2013-06-13 02:00:00,
2013-06-12 21:07:00,67.3,56.4,29.89,West,281,6.0,20.0,68,0.00,,---,0.00,VWS V14.01,2013-06-13 02:07:00,
2013-06-12 21:13:00,67.0,56.5,29.89,NW,317,15.0,20.0,69,0.00,,---,0.00,VWS V14.01,2013-06-13 02:13:00,
2013-06-12 21:19:00,66.8,56.7,29.90,NW,313,12.0,20.0,70,0.00,,---,0.00,VWS V14.01,2013-06-13 02:19:00,
2013-06-12 21:25:00,66.6,56.1,29.90,NNW,330,9.0,22.0,69,0.00,,---,0.00,VWS V14.01,2013-06-13 02:25:00,
2013-06-12 21:30:00,66.4,55.9,29.90,NW,325,15.0,22.0,69,0.00,,---,0.00,VWS V14.01,2013-06-13 02:30:00,
2013-06-12 21:37:00,66.1,55.7,29.90,NW,306,6.0,18.0,69,0.00,,---,0.00,VWS V14.01,2013-06-13 02:37:00,
2013-06-12 21:43:00,65.8,55.4,29.91,NW,312,7.0,18.0,69,0.00,,---,0.00,VWS V14.01,2013-06-13 02:43:00,
2013-06-12 21:49:00,65.5,55.1,29.91,WNW,296,9.0,19.0,69,0.00,,---,0.00,VWS V14.01,2013-06-13 02:49:00,
2013-06-12 21:55:00,65.3,55.3,29.91,NNW,330,18.0,19.0,70,0.00,,---,0.00,VWS V14.01,2013-06-13 02:55:00,
2013-06-12 22:00:00,65.2,55.2,29.91,NNW,330,7.0,19.0,70,0.00,,---,0.00,VWS V14.01,2013-06-13 03:00:00,
2013-06-12 22:06:00,65.1,55.1,29.92,West,281,8.0,18.0,70,0.00,,---,0.00,VWS V14.01,2013-06-13 03:06:00,
2013-06-12 22:12:00,64.9,54.9,29.92,NW,313,15.0,18.0,70,0.00,,---,0.00,VWS V14.01,2013-06-13 03:12:00,
2013-06-12 22:18:00,64.8,55.2,29.92,NNW,344,12.0,18.0,71,0.00,,---,0.00,VWS V14.01,2013-06-13 03:18:00,
2013-06-12 22:24:00,64.6,55.0,29.93,North,350,12.0,18.0,71,0.00,,---,0.00,VWS V14.01,2013-06-13 03:24:00,
2013-06-12 22:30:00,64.5,54.9,29.93,North,360,9.0,18.0,71,0.00,,---,0.00,VWS V14.01,2013-06-13 03:30:00,
2013-06-12 22:36:00,64.3,54.7,29.94,NNW,338,16.0,16.0,71,0.00,,---,0.00,VWS V14.01,2013-06-13 03:36:00,
2013-06-12 22:42:00,64.3,54.3,29.94,NNW,341,7.0,16.0,70,0.00,,---,0.00,VWS V14.01,2013-06-13 03:42:00,
2013-06-12 22:48:00,64.1,54.5,29.95,North,5,2.0,16.0,71,0.00,,---,0.00,VWS V14.01,2013-06-13 03:48:00,
2013-06-12 22:54:00,63.9,54.3,29.95,NNW,338,8.0,16.0,71,0.00,,---,0.00,VWS V14.01,2013-06-13 03:54:00,
2013-06-12 23:00:00,63.8,54.2,29.94,North,355,4.0,16.0,71,0.00,,---,0.00,VWS V14.01,2013-06-13 04:00:00,
2013-06-12 23:01:00,63.8,54.2,29.94,North,360,5.0,16.0,71,0.00,,---,0.00,VWS V14.01,2013-06-13 04:01:00,
2013-06-12 23:02:00,63.8,54.2,29.95,North,350,2.0,7.0,71,0.00,,---,0.00,VWS V14.01,2013-06-13 04:02:00,
2013-06-12 23:08:00,63.5,53.9,29.95,North,360,4.0,10.0,71,0.00,,---,0.00,VWS V14.01,2013-06-13 04:08:00,
2013-06-12 23:10:00,63.5,53.9,29.95,NW,318,4.0,10.0,71,0.00,,---,0.00,VWS V14.01,2013-06-13 04:10:00,
2013-06-12 23:16:00,63.2,54.0,29.95,North,360,6.0,10.0,72,0.00,,---,0.00,VWS V14.01,2013-06-13 04:16:00,
2013-06-12 23:18:00,63.1,53.9,29.95,NNW,333,5.0,10.0,72,0.00,,---,0.00,VWS V14.01,2013-06-13 04:18:00,
2013-06-12 23:24:00,62.9,53.8,29.95,NNW,336,6.0,10.0,72,0.00,,---,0.00,VWS V14.01,2013-06-13 04:24:00,
2013-06-12 23:30:00,62.6,53.8,29.95,North,355,3.0,10.0,73,0.00,,---,0.00,VWS V14.01,2013-06-13 04:30:00,
2013-06-12 23:36:00,62.3,53.5,29.95,NNW,344,3.0,7.0,73,0.00,,---,0.00,VWS V14.01,2013-06-13 04:36:00,
2013-06-12 23:42:00,62.1,53.7,29.95,NNW,327,8.0,10.0,74,0.00,,---,0.00,VWS V14.01,2013-06-13 04:42:00,
2013-06-12 23:48:00,61.8,53.4,29.96,NW,313,7.0,10.0,74,0.00,,---,0.00,VWS V14.01,2013-06-13 04:48:00,
2013-06-12 23:54:00,61.6,53.2,29.95,NW,317,2.0,10.0,74,0.00,,---,0.00,VWS V14.01,2013-06-13 04:54:00,